Elwood, KS

1:29 PM CST on December 05, 2016 (GMT -0600)
Rosecrans Memorial

Weather History for KSTJ - November, 2014

Change the Weather History Date:

Saturday, November 22, 2014

  Actual Average Record
Temperature  
Mean Temperature 49 °F 39 °F  
Max Temperature 57 °F 50 °F 78 °F (1966)
Min Temperature 40 °F 28 °F 10 °F (1929)
Degree Days  
Heating Degree Days 16 26  
Month to date heating degree days 657 465  
Since 1 July heating degree days 1020 884  
Cooling Degree Days 0 0  
Month to date cooling degree days 0 0  
Year to date cooling degree days 1182 1220  
Moisture  
Dew Point 47 °F    
Average Humidity 92    
Maximum Humidity 100    
Minimum Humidity 83    
Precipitation  
Precipitation 0.00 in 0.04 in 1.48 in (1999)
Month to date precipitation 0.04 1.23  
Year to date precipitation 30.75 33.76  
Sea Level Pressure  
Sea Level Pressure 29.89 in    
Wind  
Wind Speed 9 mph (SSW)    
Max Wind Speed 23 mph    
Max Gust Speed 30 mph    
Visibility 4 miles    
Events Fog    
T = Trace of Precipitation, MM = Missing Value Source: NWS Daily Summary

Daily Weather History Graph

Daily Weather History Graph

Search for Another Location

Airport or City:

Trip Planner

Search our weather history database for the weather conditions in past years. The results will help you decide how hot, cold, wet, or windy it might be!

Date:

Astronomy

Nov. 22, 2014 Rise Set
Actual Time 7:12 AM CST 4:59 PM CST
Civil Twilight 6:42 AM CST 5:28 PM CST
Nautical Twilight 6:09 AM CST 6:01 PM CST
Astronomical Twilight 5:37 AM CST 6:33 PM CST
Moon 7:09 AM CST (11/22) 5:30 PM CST (11/22)
Length of Visible Light 10h 45m
Length of Day
9h 46m
New Moon, 0% of the Moon is Illuminated
Nov 22
New Moon
Nov 29
First Quarter
Dec 6
Full
Dec 14
Last Quarter
Dec 21
New

Hourly Weather History & Observations

Time (CST) Temp. Windchill Dew Point Humidity Pressure Visibility Wind Dir Wind Speed Gust Speed Precip Events Conditions
12:53 AM 41.0 °F - 37.0 °F 86% 30.03 in 9.0 mi Calm Calm - N/A   Overcast
1:53 AM 42.1 °F - 39.0 °F 89% 30.02 in 8.0 mi Calm Calm - N/A   Overcast
2:22 AM 41.0 °F 38.0 °F 39.0 °F 93% 30.01 in 7.0 mi NNW 4.6 mph - N/A   Overcast
2:49 AM 42.8 °F 39.3 °F 42.8 °F 100% 30.01 in 2.5 mi West 5.8 mph - N/A   Overcast
2:53 AM 43.0 °F 39.5 °F 42.1 °F 97% 30.02 in 2.0 mi West 5.8 mph - N/A   Overcast
3:43 AM 44.1 °F 39.0 °F 43.0 °F 96% 30.00 in 3.0 mi SW 9.2 mph - N/A   Overcast
3:53 AM 43.0 °F 38.2 °F 42.1 °F 97% 30.01 in 3.0 mi SW 8.1 mph - N/A   Overcast
4:02 AM 43.0 °F 38.2 °F 42.1 °F 97% 30.00 in 2.5 mi SW 8.1 mph - N/A   Overcast
4:37 AM 43.0 °F 38.8 °F 42.1 °F 97% 29.99 in 3.0 mi SW 6.9 mph - N/A   Overcast
4:53 AM 43.0 °F 39.5 °F 42.1 °F 97% 30.00 in 3.0 mi SSW 5.8 mph - N/A   Overcast
5:12 AM 42.1 °F 37.7 °F 42.1 °F 100% 29.98 in 2.5 mi SSW 6.9 mph - N/A   Overcast
5:46 AM 43.0 °F 38.2 °F 42.1 °F 97% 29.97 in 2.5 mi SW 8.1 mph - N/A   Overcast
5:53 AM 43.0 °F 39.5 °F 42.1 °F 97% 29.99 in 2.5 mi SSW 5.8 mph - N/A   Overcast
6:10 AM 43.0 °F 38.8 °F 42.1 °F 97% 29.97 in 1.5 mi SSW 6.9 mph - N/A   Overcast
6:29 AM 42.1 °F 38.4 °F 42.1 °F 100% 29.96 in 0.8 mi South 5.8 mph - N/A   Overcast
6:36 AM 42.1 °F 38.4 °F 42.1 °F 100% 29.96 in 0.5 mi South 5.8 mph - N/A Fog Fog
6:50 AM 42.8 °F 40.1 °F 42.8 °F 100% 29.95 in 0.5 mi South 4.6 mph - N/A Fog Fog
6:53 AM 42.1 °F 39.2 °F 42.1 °F 100% 29.96 in 0.5 mi SSE 4.6 mph - N/A Fog Fog
7:02 AM 43.0 °F 41.3 °F 43.0 °F 100% 29.95 in 0.5 mi South 3.5 mph - N/A Fog Fog
7:17 AM 42.1 °F - 42.1 °F 100% 29.95 in 0.2 mi Calm Calm - N/A Fog Fog
7:50 AM 42.8 °F 40.1 °F 42.8 °F 100% 29.94 in 0.2 mi SSW 4.6 mph - N/A Fog Fog
7:53 AM 43.0 °F 40.3 °F 43.0 °F 100% 29.96 in 0.2 mi SSW 4.6 mph - N/A Fog Fog
8:00 AM 43.0 °F 40.3 °F 43.0 °F 100% 29.94 in 0.2 mi SSW 4.6 mph - N/A Fog Fog
8:53 AM 44.1 °F 40.1 °F 44.1 °F 100% 29.95 in 0.2 mi SSW 6.9 mph - N/A Fog Fog
9:51 AM 48.2 °F - 48.2 °F 100% 29.93 in 0.2 mi SW 6.9 mph - N/A Fog Fog
9:53 AM 48.0 °F - 48.0 °F 100% 29.94 in 0.2 mi SW 6.9 mph - N/A Fog Fog
10:53 AM 50.0 °F - 50.0 °F 100% 29.90 in 0.2 mi SW 5.8 mph - N/A Fog Fog
11:53 AM 52.0 °F - 52.0 °F 100% 29.87 in 0.2 mi SW 5.8 mph - N/A Fog Fog
12:51 PM 51.8 °F - 51.8 °F 100% 29.82 in 0.2 mi Calm Calm - N/A Fog Fog
12:53 PM 52.0 °F - 52.0 °F 100% 29.83 in 0.2 mi Calm Calm - N/A Fog Fog
1:09 PM 53.1 °F - 53.1 °F 100% 29.82 in 1.0 mi South 3.5 mph - N/A   Overcast
1:28 PM 55.0 °F - 54.0 °F 96% 29.80 in 2.0 mi South 10.4 mph - N/A   Overcast
1:53 PM 55.0 °F - 55.0 °F 100% 29.79 in 3.0 mi South 10.4 mph - N/A   Overcast
2:53 PM 55.9 °F - 55.0 °F 97% 29.78 in 6.0 mi South 12.7 mph - N/A   Overcast
3:53 PM 55.9 °F - 54.0 °F 93% 29.77 in 7.0 mi South 12.7 mph - N/A   Overcast
4:21 PM 55.9 °F - 54.0 °F 93% 29.76 in 10.0 mi South 13.8 mph - N/A   Overcast
4:53 PM 57.0 °F - 53.1 °F 87% 29.75 in 10.0 mi South 13.8 mph - N/A   Overcast
5:12 PM 55.9 °F - 53.1 °F 90% 29.74 in 10.0 mi South 13.8 mph - N/A   Overcast
5:53 PM 54.0 °F - 51.1 °F 90% 29.73 in 10.0 mi South 13.8 mph - N/A   Clear
6:53 PM 53.1 °F - 50.0 °F 89% 29.73 in 10.0 mi South 12.7 mph - N/A   Mostly Cloudy
7:53 PM 55.0 °F - 51.1 °F 86% 29.70 in 10.0 mi South 19.6 mph 26.5 mph N/A   Overcast
8:53 PM 55.0 °F - 51.1 °F 86% 29.71 in 10.0 mi South 15.0 mph - N/A   Overcast
9:53 PM 55.0 °F - 50.0 °F 83% 29.70 in 10.0 mi South 15.0 mph - N/A   Overcast
10:53 PM 54.0 °F - 51.1 °F 90% 29.68 in 10.0 mi South 12.7 mph - N/A   Overcast
11:53 PM 54.0 °F - 50.0 °F 86% 29.66 in 10.0 mi South 11.5 mph - N/A   Overcast